Regional Weather Roundup
Issued by NWS

Home | Current Version | Previous Version | Graphics & Text | Print | Product List | Glossary On
Versions: 1 2 3 4 5 6 7 8 9 10 11 12 13 14 15 16 17 18 19 20 21 22 23 24 25 26 27 28 29 30 31 32 33 34 35 36 37 38 39 40 41 42 43 44 45 46 47 48 49 50
241
ASUS45 KCYS 240110
RWRWY

WYOMING REGIONAL WEATHER ROUNDUP
NATIONAL WEATHER SERVICE CHEYENNE WY
700 PM MDT FRI JUN 23 2017

NOTE:  "FAIR" INDICATES FEW OR NO CLOUDS BELOW 12,000 FEET
WITH NO SIGNIFICANT WEATHER AND/OR OBSTRUCTIONS TO VISIBILITY.

WYZ001-240200-
YELLOWSTONE NATIONAL PARK

CITY           SKY/WX    TMP DP  RH WIND       PRES   REMARKS
LK YELLOWSTONE   N/A     58  29  33 CALM      30.35R
W YELLOWSTONE  NOT AVBL

$$
WYZ002>013-054>058-071-098>099-240200-
NORTHERN WYOMING

CITY           SKY/WX    TMP DP  RH WIND       PRES   REMARKS
JACKSON        SUNNY     66  23  19 CALM      30.27
CODY           FAIR      66  32  28 N9        30.26R
GREYBULL       FAIR      72  26  18 N15       30.18S
WORLAND        FAIR      72  27  18 NE7       30.19S
SHERIDAN       FAIR      67  35  30 N13       30.24R
BUFFALO        FAIR      63  33  32 N13       30.28S
GILLETTE       FAIR      65  31  28 N13       30.23S
NEWCASTLE      FAIR      63  27  25 NW20G26   30.24R

$$
WYZ014>020-022>026-101>103-240200-
CENTRAL WYOMING

CITY           SKY/WX    TMP DP  RH WIND       PRES   REMARKS
BIG PINEY      FAIR      71  23  16 NW16      30.27R
PINEDALE       FAIR      68  21  17 W10G21    30.27R
DUBOIS         FAIR      61  32  33 SE12G21   30.28R
LANDER         FAIR      67  35  30 NE10      30.21R
RIVERTON       FAIR      68  28  22 NE9       30.23R
CASPER         FAIR      66  31  27 N14       30.24R
DOUGLAS        FAIR      66  31  27 N15G21    30.25R

$$
WYZ021-027>030-104>119-240200-
SOUTHERN WYOMING

CITY           SKY/WX    TMP DP  RH WIND       PRES   REMARKS
EVANSTON       FAIR      72  26  18 NW14      30.29R
KEMMERER         N/A     70  28  21 NW14G23   30.30R
FORT BRIDGER   FAIR      76  15  10 W17G25    30.30R
ROCK SPRINGS   FAIR      75  18  11 W16G26    30.21S
DIXON          FAIR      78  23  13 NW13G23   30.23R
RAWLINS        FAIR      72  24  16 NW12      30.24
SARATOGA       FAIR      70  27  19 NW10G21   30.26R
LARAMIE        FAIR      59  38  45 E13       30.28R
CHEYENNE       PTSUNNY   62  42  47 SW3       30.27R
TORRINGTON     FAIR      70  25  18 N13       30.20R
PINE BLUFFS    FAIR      66  36  32 NE7       30.24R

$$




USA.gov is the U.S. government's official web portal to all federal, state and local government web resources and services.